Regional Weather Roundup
Issued by NWS Goodland, KS

Home | Current Version | Previous Version | Graphics & Text | Print | Product List | Glossary On
Versions: 1 2 3 4 5 6 7 8 9 10 11 12 13 14 15 16 17 18 19 20 21 22 23 24 25 26 27 28 29 30 31 32 33 34 35 36 37 38 39 40 41 42 43 44 45 46 47 48 49 50
000
ASUS43 KGLD 051208
RWRGLD

GOODLAND FORECAST AREA HOURLY WEATHER ROUNDUP
NATIONAL WEATHER SERVICE GOODLAND KS
500 AM MST MON DEC 05 2016

...OFFICIAL OBSERVATIONS...

CITY           SKY/WX    TMP DP  RH WIND       PRES   REMARKS
GOODLAND KS    CLOUDY    30  16  56 SW8       29.60S
HILL CITY KS   CLOUDY    40  25  55 SW13      29.67F
IMPERIAL NEB   CLOUDY    30  18  60 S8        29.57F
MCCOOK NEB     PTCLDY    25  19  78 CALM      29.62F
AKRON CO       CLOUDY    41  15  35 N6        29.56F
BURLINGTON CO  CLOUDY    27  13  55 W13       29.60F WCI  16
LIMON CO       CLOUDY    21  14  74 NW3       29.60F
$$

...UNOFFICIAL OBSERVATIONS...

CITY           SKY/WX    TMP DP  RH WIND       PRES   REMARKS
COLBY KS       CLEAR     28  21  74 SW9       29.62F
LENORA KS        N/A     39  32  76 MISG        N/A
NORTON KS      CLEAR     36  21  55 S5        29.63F
SHARON SPRINGS   N/A     28  18  66 S10         N/A  WCI  19
TRENTON NEB      N/A     28  32 100 CALM        N/A
KIT CARSON CO    N/A     17  10  72 CALM        N/A
YUMA CO        FAIR      30  14  51 NW7       29.56F
$$




USA.gov is the U.S. government's official web portal to all federal, state and local government web resources and services.